O3B FM15

Last updated on Wed Jun 24 2026 00:03:25 GMT+0000 (Coordinated Universal Time)

1 43231U 18024A 26172.49039733 -.00000023 00000+0 00000+0 0 9998 2 43231 0.0516 1.7468 0002624 86.7751 271.5061 5.00115787151240
UTC large
Height (km)
Speed (km/s)
/
Latitude / Longitude
Inclination (degrees)
Orbital Period (minutes)
Azimuth
Elevation
Range (km)
Doppler Factor

Next 0 passes for location: London (51.5072 / 0.1276)

No passes found over London.
O3B FM15